Location: Bonnesvalyn
(49.1218°N, 3.3177°E)
Time: 14:10:43
(UTC+00:00)

USA 215 - Pass Details

Date: 09 February 2023
Orbit: 1100 x 1107 km, 123.0° (Epoch: 18 March)

Event Time Altitude Azimuth Distance (km) Brightness Sun altitude
Rises 17:24:15 0° 114° (ESE) 3,915 5.7 -5.1°
Reaches altitude 10° 17:26:43 10° 114° (ESE) 2,959 5.1 -5.5°
Maximum altitude 17:33:15 79° 29° (NNE) 1,127 3.3 -6.6°
Drops below altitude 10° 17:39:48 10° 304° (NW) 2,964 6.2 -7.6°
Sets 17:42:16 0° 303° (WNW) 3,923 6.9 -8.0°
